Wind_Speed
6 6 7 7 6 5 4 3 4 3 3 3 2 2 2 3 4 5 7 10 13 16 19 22 24 26 28 30 31 33 34 36 38 40 41 42 43 44 45 46 47 48 49
5 5 5 4 4 4 3 2 0 2 3 3 2 3 2 3 4 7 10 13 16 18 21 25 27 29 31 33 34 36 38 39 41 42 44 45 47 47 48 50 51 52 53
6 5 5 5 4 3 2 1 2 3 3 2 0 1 2 5 7 9 11 14 18 21 23 25 27 30 33 35 36 38 40 42 44 45 47 48 49 51 52 54 55 55 54
8 7 6 5 4 4 4 4 4 4 3 3 4 4 5 5 6 9 13 15 17 20 24 26 29 30 31 32 34 36 38 40 42 44 46 47 49 50 51 53 54 54 54
11 10 9 8 7 7 7 7 6 6 5 6 7 6 6 7 8 10 10 13 18 22 26 30 32 35 37 38 40 42 44 46 47 47 48 49 50 51 52 53 53 54 54
15 13 12 11 11 10 10 9 8 8 9 9 10 9 8 9 9 11 13 19 22 25 28 31 34 36 38 41 44 47 49 50 52 53 54 55 57 59 60 60 59 59 59
16 16 14 14 13 13 13 12 11 12 12 14 14 12 12 12 14 16 20 24 26 28 31 33 37 39 42 45 48 52 54 57 58 60 61 61 64 64 64 64 66 66 67
18 18 17 17 16 16 16 15 15 15 15 17 16 16 17 17 19 22 25 28 31 32 34 37 39 42 44 47 50 55 59 62 65 66 66 66 66 67 68 68 68 68 68
21 22 22 21 20 19 19 19 18 17 19 19 19 20 21 23 25 27 29 32 35 37 39 41 43 46 49 51 54 59 65 68 70 70 72 72 72 72 71 71 70 69 68
22 24 25 24 23 22 22 21 20 21 23 22 22 23 25 27 29 31 34 37 39 41 44 46 49 51 54 57 59 63 68 72 74 77 78 78 78 76 75 73 71 70 68
25 26 26 25 25 25 24 23 23 25 27 25 25 26 28 30 33 35 38 41 43 45 48 51 54 56 58 61 64 66 70 74 77 80 82 81 80 77 76 74 71 69 70
27 27 27 27 27 27 26 25 26 29 30 28 29 30 31 33 35 38 40 43 45 49 52 55 58 59 62 64 67 69 72 75 79 82 81 80 79 76 75 72 71 70 68
30 30 29 30 30 29 28 28 30 33 32 31 32 32 34 36 38 40 42 44 46 50 54 56 59 62 65 68 71 73 75 78 82 84 81 78 75 73 70 70 70 69 71
32 32 31 31 30 29 29 31 35 36 34 33 34 35 37 39 41 44 45 47 50 53 56 58 61 65 69 71 75 78 79 82 84 83 79 75 72 70 70 70 73 76 80
34 34 34 32 31 30 31 35 38 36 36 36 37 38 39 42 45 46 48 51 55 56 57 58 63 66 69 73 77 80 82 85 83 79 77 73 73 72 73 76 81 85 91
36 36 36 36 35 34 35 37 38 38 38 38 40 41 42 46 47 49 51 54 57 59 60 63 65 68 71 74 77 81 85 85 78 76 76 74 75 76 79 85 90 95 100
39 38 39 38 38 39 39 40 40 39 40 41 42 43 45 46 49 52 55 58 61 63 65 67 70 72 74 77 79 82 84 78 75 74 74 77 78 82 87 92 98 105 110
41 40 40 41 42 42 43 43 43 43 42 43 44 46 47 50 53 56 58 61 63 65 68 70 72 75 77 79 81 84 81 75 76 75 77 79 83 89 96 101 108 109 99
41 42 43 44 45 45 45 47 45 46 46 46 47 47 51 53 55 58 60 63 66 68 71 74 76 78 79 80 84 82 77 76 77 77 79 84 90 96 103 111 108 92 74
45 44 45 46 48 49 49 49 49 49 49 49 50 50 52 56 58 60 63 66 67 70 73 76 77 79 79 83 83 80 75 78 76 78 84 91 96 103 109 107 92 71 42
48 48 48 49 51 52 52 53 52 52 52 53 54 54 55 58 60 63 65 66 69 71 73 75 77 77 80 79 76 76 76 75 76 83 87 95 102 107 105 86 68 43 16
51 52 50 52 52 54 56 56 57 56 55 55 56 56 58 60 62 65 66 68 70 72 73 74 75 78 76 73 76 76 75 76 79 85 91 99 106 108 90 65 43 18 8
52 55 54 54 55 56 58 58 60 61 59 57 56 57 61 63 64 66 67 69 71 72 73 73 77 77 71 73 75 73 75 80 86 90 95 101 104 92 72 46 24 11 9
56 57 59 57 58 57 58 60 60 60 63 61 59 61 61 63 65 66 68 69 71 72 72 77 77 70 73 76 73 74 78 83 90 97 101 102 93 74 51 29 11 10 11
59 59 59 61 61 60 62 62 61 62 63 61 61 61 63 65 65 68 67 69 70 71 74 77 71 71 75 72 72 75 81 86 92 98 102 90 74 50 29 12 10 9 8
54 57 60 60 61 61 62 63 63 64 61 61 61 62 65 65 67 66 69 69 70 73 75 70 69 71 69 70 74 79 84 90 95 100 92 70 53 23 12 9 10 8 9
Wind_Direction
141 132 127 127 129 128 113 82 60 46 30 19 2 323 315 323 329 336 333 329 324 323 323 321 317 315 314 312 309 307 307 308 309 309 308 307 307 307 306 304 303 301 299
176 174 174 170 165 168 170 152 94 328 328 339 1 25 24 2 338 330 328 329 330 328 325 322 319 315 311 311 313 315 313 311 310 310 310 309 308 306 305 304 302 300 298
193 186 189 190 189 191 198 245 293 303 300 300 301 310 310 324 326 333 336 333 334 335 333 331 328 326 325 323 318 314 312 311 310 308 308 307 306 305 304 304 304 304 302
217 216 216 219 221 234 252 268 284 293 275 259 275 301 309 315 326 330 335 341 348 354 354 351 347 344 341 337 332 327 321 317 314 312 312 311 311 310 308 307 307 308 308
225 229 232 235 243 250 257 264 270 270 269 279 287 287 287 303 318 326 333 342 347 351 350 349 349 348 346 345 342 339 336 332 329 325 321 318 315 313 311 310 308 307 306
231 238 242 240 243 250 256 262 263 267 273 277 278 268 279 289 299 308 321 331 334 334 334 336 338 338 338 339 338 337 334 331 329 326 322 320 319 318 316 314 311 309 309
234 240 245 245 246 251 256 260 259 263 270 276 279 263 273 282 293 303 315 321 323 323 323 327 330 332 334 333 332 332 332 331 329 328 326 323 322 319 316 314 312 311 310
235 240 246 248 249 253 256 260 262 266 271 278 276 265 269 280 290 298 306 312 315 316 319 323 325 326 327 328 328 329 329 328 327 327 326 322 320 318 316 313 311 309 307
238 241 246 249 252 255 258 262 263 268 278 276 268 266 270 278 287 295 300 303 308 313 317 319 321 322 324 324 327 328 329 328 327 326 325 323 320 318 315 312 310 306 304
240 242 245 248 253 256 259 262 263 270 275 272 269 269 272 280 285 290 296 301 307 311 313 316 319 320 321 323 325 325 326 326 326 325 323 321 320 317 314 311 309 307 305
236 239 243 247 251 254 257 259 263 271 275 273 271 271 274 281 286 290 294 300 306 309 312 315 315 318 321 321 322 322 322 323 323 323 322 320 318 316 313 311 309 307 306
245 245 248 249 251 254 257 257 264 273 274 273 275 275 275 280 287 291 295 299 304 309 312 312 314 316 317 317 317 318 319 321 321 322 320 318 316 314 311 309 308 307 307
250 250 251 251 252 254 253 257 266 273 274 274 276 278 280 283 287 290 293 297 303 306 308 309 310 312 313 314 316 318 319 320 322 321 318 317 314 311 309 308 307 306 305
254 256 254 251 249 249 253 262 269 274 274 274 277 279 281 284 287 290 294 298 302 305 306 307 310 311 312 315 315 316 318 321 321 319 316 314 312 310 311 309 309 310 309
254 256 254 252 250 250 257 269 276 276 274 273 276 279 282 284 287 291 296 300 302 303 304 307 307 309 311 313 313 315 318 320 319 316 317 314 315 314 311 309 310 310 309
256 254 252 251 251 253 262 271 277 278 278 277 279 283 285 287 291 294 295 297 299 303 304 307 308 311 312 313 314 317 318 320 318 316 317 317 315 313 312 312 312 312 311
256 251 250 250 252 257 265 272 278 279 280 278 278 280 282 284 287 289 293 297 300 303 305 308 310 311 312 312 316 318 319 318 318 318 318 315 314 313 313 315 314 314 313
256 254 251 252 254 259 266 273 279 281 281 282 282 282 283 286 288 291 293 296 300 303 305 308 310 311 312 314 316 318 319 318 319 319 317 315 315 316 318 318 318 317 312
259 257 256 255 257 260 266 271 277 281 284 285 284 283 284 286 289 290 294 298 301 303 306 307 309 311 313 315 317 318 318 318 320 318 316 317 319 320 321 321 320 316 319
258 260 258 258 259 263 266 271 277 281 284 286 285 285 285 288 290 293 296 300 303 306 308 309 311 312 314 315 316 317 317 319 319 317 320 320 321 323 323 320 319 319 317
255 258 260 262 263 264 267 272 275 279 283 284 286 286 287 289 291 294 299 303 305 307 309 311 312 312 314 316 317 316 318 320 317 319 322 322 323 323 321 319 321 318 307
254 257 258 261 261 265 269 273 277 279 282 285 285 286 288 289 293 297 301 303 306 308 310 310 311 313 314 316 317 318 318 316 321 322 324 325 325 323 319 321 318 307 279
255 257 261 262 264 267 270 272 276 280 280 283 286 287 287 291 295 298 302 305 307 308 309 310 312 314 315 315 317 318 318 322 324 324 326 326 327 319 320 318 307 268 259
259 260 262 261 266 268 272 276 278 281 284 284 286 285 288 292 296 301 303 305 308 309 310 311 313 311 313 315 317 318 322 325 326 327 328 329 326 320 320 307 246 261 259
260 260 261 265 267 268 272 273 274 277 279 283 280 286 289 292 298 300 304 306 308 309 310 311 308 309 312 315 316 321 324 326 327 328 328 325 322 320 313 277 241 272 270
260 262 262 263 265 267 269 272 276 279 278 278 282 286 291 295 298 301 303 305 307 308 309 307 306 309 313 315 320 323 326 328 330 330 328 323 321 315 297 294 258 277 277
Height
5856 5857 5858 5859 5859 5859 5859 5859 5859 5859 5859 5859 5858 5858 5858 5858 5857 5856 5856 5855 5854 5852 5851 5849 5846 5844 5841 5838 5835 5832 5829 5825 5821 5817 5814 5810 5806 5802 5798 5794 5791 5787 5783
5857 5857 5858 5859 5859 5859 5860 5860 5860 5859 5859 5858 5858 5857 5857 5856 5856 5855 5854 5853 5851 5850 5847 5845 5842 5839 5836 5833 5829 5826 5822 5819 5815 5810 5806 5802 5798 5794 5790 5785 5780 5776 5772
5856 5857 5857 5858 5858 5859 5859 5859 5858 5858 5858 5857 5857 5856 5856 5854 5854 5853 5852 5850 5849 5847 5844 5841 5838 5834 5830 5827 5824 5820 5816 5812 5808 5804 5800 5795 5790 5785 5780 5775 5770 5765 5761
5854 5855 5856 5856 5857 5857 5857 5857 5857 5856 5856 5855 5855 5854 5853 5852 5851 5850 5848 5847 5846 5844 5840 5837 5834 5831 5827 5823 5819 5815 5811 5807 5803 5798 5794 5788 5783 5777 5772 5766 5761 5755 5750
5852 5853 5854 5855 5855 5855 5856 5855 5855 5855 5854 5854 5853 5852 5851 5849 5848 5847 5846 5844 5842 5839 5836 5833 5829 5826 5822 5818 5814 5810 5805 5801 5796 5791 5786 5780 5774 5768 5762 5756 5750 5744 5739
5850 5851 5852 5852 5853 5853 5853 5853 5853 5852 5851 5851 5850 5849 5848 5847 5846 5844 5842 5840 5837 5835 5832 5829 5825 5821 5816 5812 5807 5803 5798 5793 5787 5782 5775 5768 5762 5755 5749 5742 5735 5729 5724
5847 5848 5849 5849 5850 5850 5850 5850 5850 5849 5849 5848 5847 5846 5844 5843 5842 5840 5837 5835 5833 5830 5827 5823 5819 5814 5810 5805 5800 5795 5790 5785 5779 5772 5765 5758 5750 5743 5736 5729 5722 5715 5708
5843 5844 5845 5846 5846 5846 5846 5846 5846 5846 5845 5844 5843 5842 5841 5840 5838 5835 5832 5830 5827 5824 5821 5817 5812 5807 5803 5798 5792 5787 5781 5775 5768 5761 5754 5746 5739 5731 5723 5716 5708 5700 5693
5838 5840 5840 5841 5842 5842 5842 5842 5842 5842 5841 5840 5839 5838 5837 5835 5832 5830 5827 5824 5820 5817 5813 5809 5804 5799 5793 5788 5781 5775 5768 5762 5755 5748 5740 5732 5725 5717 5708 5700 5692 5684 5677
5834 5834 5835 5836 5837 5838 5838 5838 5838 5837 5836 5835 5834 5833 5831 5829 5826 5824 5821 5817 5814 5809 5804 5798 5793 5788 5782 5775 5768 5762 5756 5749 5742 5735 5727 5719 5711 5702 5693 5684 5676 5669 5662
5828 5829 5830 5831 5832 5833 5833 5833 5833 5832 5831 5830 5828 5827 5825 5823 5820 5817 5814 5810 5805 5799 5794 5788 5782 5777 5770 5764 5758 5752 5746 5739 5732 5724 5715 5705 5696 5687 5678 5669 5662 5654 5647
5823 5824 5825 5826 5827 5827 5828 5828 5827 5826 5825 5824 5823 5821 5819 5816 5814 5811 5807 5802 5797 5791 5784 5777 5772 5767 5762 5756 5749 5742 5734 5727 5720 5710 5699 5689 5681 5671 5662 5653 5645 5638 5629
5818 5819 5820 5820 5821 5821 5821 5821 5821 5820 5819 5817 5816 5814 5812 5809 5807 5804 5800 5796 5792 5786 5779 5772 5766 5760 5753 5746 5738 5730 5722 5714 5704 5694 5684 5675 5665 5656 5647 5639 5629 5621 5612
5812 5813 5814 5814 5815 5815 5815 5815 5814 5813 5812 5810 5808 5806 5804 5802 5799 5796 5793 5788 5784 5779 5772 5764 5756 5748 5741 5734 5726 5718 5710 5700 5690 5680 5670 5661 5651 5641 5632 5623 5613 5603 5592
5805 5806 5807 5808 5808 5809 5809 5808 5806 5805 5804 5802 5800 5798 5796 5793 5791 5787 5782 5777 5773 5769 5763 5755 5748 5739 5731 5723 5714 5706 5696 5687 5675 5665 5655 5645 5634 5624 5614 5605 5594 5582 5569
5797 5797 5799 5801 5801 5801 5802 5801 5799 5797 5795 5794 5791 5789 5788 5784 5780 5776 5772 5768 5763 5756 5751 5743 5735 5726 5718 5710 5701 5692 5682 5672 5661 5649 5640 5629 5619 5609 5598 5587 5573 5558 5542
5788 5789 5790 5792 5793 5793 5793 5792 5790 5789 5787 5784 5782 5781 5778 5775 5771 5767 5762 5757 5751 5744 5738 5730 5721 5713 5705 5698 5688 5678 5668 5658 5647 5635 5625 5615 5605 5593 5581 5566 5550 5532 5513
5780 5780 5782 5783 5784 5784 5783 5782 5781 5779 5778 5776 5774 5771 5768 5765 5760 5755 5750 5745 5739 5732 5726 5718 5708 5701 5692 5683 5675 5666 5655 5643 5633 5622 5611 5598 5586 5574 5560 5541 5524 5503 5482
5771 5773 5773 5774 5774 5774 5773 5772 5772 5769 5767 5765 5763 5761 5757 5752 5748 5743 5738 5732 5726 5718 5711 5704 5696 5686 5678 5669 5661 5651 5641 5631 5617 5606 5595 5581 5567 5552 5537 5518 5498 5478 5464
5762 5763 5764 5765 5764 5764 5763 5762 5760 5759 5756 5754 5751 5748 5744 5739 5735 5730 5725 5719 5712 5704 5697 5689 5682 5674 5664 5656 5647 5638 5630 5616 5606 5593 5581 5563 5549 5531 5515 5495 5480 5466 5455
5750 5752 5753 5753 5752 5752 5752 5751 5749 5747 5745 5742 5739 5735 5732 5727 5722 5718 5712 5706 5699 5692 5684 5676 5669 5660 5651 5643 5634 5626 5616 5607 5594 5578 5568 5546 5535 5516 5496 5476 5463 5455 5451
5738 5739 5740 5740 5741 5739 5739 5738 5737 5735 5733 5730 5727 5724 5720 5715 5710 5704 5698 5693 5686 5679 5671 5664 5655 5647 5638 5629 5620 5610 5600 5591 5585 5568 5551 5532 5513 5492 5476 5463 5454 5450 5448
5727 5727 5728 5728 5728 5728 5727 5726 5724 5722 5720 5719 5716 5712 5707 5702 5697 5692 5686 5679 5672 5665 5658 5649 5642 5632 5623 5615 5608 5599 5586 5572 5559 5547 5536 5516 5495 5473 5461 5453 5447 5447 5445
5716 5716 5714 5716 5716 5716 5714 5713 5712 5709 5706 5705 5702 5698 5694 5689 5684 5678 5672 5665 5658 5650 5642 5634 5626 5618 5609 5601 5592 5583 5573 5560 5542 5522 5509 5495 5476 5457 5452 5445 5442 5443 5442
5702 5703 5704 5703 5704 5704 5702 5701 5701 5699 5696 5693 5689 5685 5681 5676 5671 5666 5659 5652 5645 5637 5629 5620 5612 5604 5595 5586 5578 5570 5558 5545 5533 5509 5495 5474 5460 5448 5442 5439 5440 5440 5440
5690 5689 5690 5690 5690 5690 5690 5688 5687 5685 5683 5679 5676 5672 5667 5663 5658 5653 5647 5640 5632 5624 5617 5607 5600 5592 5583 5573 5562 5551 5541 5528 5512 5498 5478 5462 5448 5443 5440 5438 5438 5439 5439